Weather History for KCXY - March, 2014

Change the Weather History Date:

Monday, March 17, 2014

  Actual Average Record
Temperature  
Mean Temperature 28 °F -  
Max Temperature 35 °F 46 °F 82 °F (1945)
Min Temperature 23 °F 30 °F 11 °F (1900)
Degree Days  
Heating Degree Days 36    
Moisture  
Dew Point 9 °F    
Average Humidity 44    
Maximum Humidity 74    
Minimum Humidity 31    
Precipitation  
Precipitation 0.00 in - - ()
Sea Level Pressure  
Sea Level Pressure 30.08 in    
Wind  
Wind Speed 6 mph (East)    
Max Wind Speed 14 mph    
Max Gust Speed 18 mph    
Visibility 10 miles    
Events      
Averages and records for this station are not official NWS values.
T = Trace of Precipitation, MM = Missing Value Source: NWS Daily Summary

Daily Weather History Graph

Daily Weather History Graph

Search for Another Location

Airport or City:

Trip Planner

Search our weather history database for the weather conditions in past years. The results will help you decide how hot, cold, wet, or windy it might be!

Date:

Astronomy

Mar. 17, 2014 Rise Set
Actual Time 7:15 AM EDT 7:16 PM EDT
Civil Twilight 6:48 AM EDT 7:43 PM EDT
Nautical Twilight 6:17 AM EDT 8:15 PM EDT
Astronomical Twilight 5:45 AM EDT 8:47 PM EDT
Moon 8:31 PM EDT (3/17) 7:30 AM EDT (3/17)
Length of Visible Light 12h 54m
Length of Day
12h 00m
Full, 99% of the Moon is Illuminated
Mar 17
Full
Mar 23
Last Quarter
Mar 30
New
Apr 7
First Quarter
Apr 15
Full

Hourly Weather History & Observations

Time (EDT) Temp. Windchill Dew Point Humidity Pressure Visibility Wind Dir Wind Speed Gust Speed Precip Events Conditions
12:56 AM 30.0 °F 21.7 °F 5.0 °F 35% 30.12 in 10.0 mi ENE 9.2 mph - N/A   Overcast
1:56 AM 28.9 °F 20.4 °F 3.9 °F 35% 30.09 in 10.0 mi ENE 9.2 mph - N/A   Overcast
2:56 AM 28.9 °F 21.1 °F 3.9 °F 35% 30.06 in 10.0 mi NE 8.1 mph - N/A   Overcast
3:56 AM 28.0 °F 20.8 °F 1.0 °F 31% 30.08 in 10.0 mi NE 6.9 mph - N/A   Overcast
4:56 AM 25.0 °F 13.1 °F 7.0 °F 46% 30.07 in 10.0 mi SE 13.8 mph 18.4 mph N/A   Overcast
5:56 AM 23.0 °F 13.9 °F 15.1 °F 72% 30.06 in 10.0 mi SE 8.1 mph - N/A   Overcast
6:56 AM 23.0 °F 17.0 °F 16.0 °F 74% 30.07 in 10.0 mi SSE 4.6 mph - N/A   Overcast
7:56 AM 24.1 °F - 16.0 °F 71% 30.09 in 10.0 mi Calm Calm - N/A   Overcast
8:56 AM 25.0 °F - 14.0 °F 63% 30.10 in 10.0 mi Calm Calm - N/A   Overcast
9:56 AM 28.0 °F 22.8 °F 5.0 °F 38% 30.08 in 10.0 mi East 4.6 mph - N/A   Overcast
10:56 AM 28.0 °F 22.8 °F 3.0 °F 34% 30.10 in 10.0 mi North 4.6 mph - N/A   Overcast
11:56 AM 28.9 °F 21.1 °F 3.0 °F 33% 30.11 in 10.0 mi East 8.1 mph - N/A   Overcast
12:56 PM 30.9 °F - 3.9 °F 32% 30.09 in 10.0 mi Calm Calm - N/A   Overcast
1:56 PM 30.9 °F - 6.1 °F 35% 30.07 in 10.0 mi Calm Calm - N/A   Overcast
2:56 PM 33.1 °F 28.7 °F 7.0 °F 34% 30.05 in 10.0 mi NW 4.6 mph - N/A   Overcast
3:56 PM 34.0 °F - 8.1 °F 34% 30.04 in 10.0 mi Calm Calm - N/A   Overcast
4:56 PM 34.0 °F - 10.9 °F 38% 30.05 in 10.0 mi Calm Calm - N/A   Overcast
5:56 PM 34.0 °F 31.0 °F 12.0 °F 40% 30.05 in 10.0 mi East 3.5 mph - N/A   Overcast
6:56 PM 34.0 °F 31.0 °F 12.9 °F 42% 30.05 in 10.0 mi East 3.5 mph - N/A   Overcast
7:56 PM 34.0 °F 28.0 °F 12.0 °F 40% 30.06 in 10.0 mi East 6.9 mph - N/A   Overcast
8:56 PM 33.1 °F 28.7 °F 16.0 °F 50% 30.08 in 10.0 mi SE 4.6 mph - N/A   Overcast
9:56 PM 33.1 °F 26.9 °F 12.9 °F 43% 30.11 in 10.0 mi SE 6.9 mph - N/A   Overcast
10:56 PM 33.1 °F 26.9 °F 14.0 °F 46% 30.12 in 10.0 mi East 6.9 mph - N/A   Overcast
11:56 PM 33.1 °F 27.7 °F 16.0 °F 50% 30.11 in 10.0 mi ESE 5.8 mph - N/A   Overcast